Showing default

GLOBALSTAR M028, 25875

Orbit data source: Space-Track

GLOBALSTAR M028, 25875 is a payload satellite owned by Globalstar (US) in LEO that was launched on Sun, 25 Jul 1999 UTC via a DELTA 7420-10C launch vehicle from the Air Force Eastern Test Range (AFETR). Payload-class satellites include a variety of spacecraft equipped with specific instruments for various scientific and technological missions. These include communications satellites like Starlink; space stations such as the ISS; scientific satellites like the Hubble; Earth observation satellites from companies like Planet Labs, Umbra, and HawkEye 360; GPS; miniature CubeSats for education and research; and military/defense satellites.

Loading next visibility...
Identifier
25875, 1999-041D
Orbit
LEO
Country
Flag of UnknownUnknown / GLOB
Related business
Manufacturer
SS/Loral
Mission
Non-operational Commercial Communications
Bus & Motor
LS-400, LS-400 AOCS
Mass
450 kg wet, 380 kg dry
Launch date (UTC)
1999-07-25 (26 years ago)
Launch vehicle
DELTA 7420-10C
Launch site
Air Force Eastern Test Range (AFETR)
Object type
Payload
Rocket body
Debris
Shape & HBR
Box + 2 Pan, 6.0 m
Radar Cross Section
5.587 m², Large (>1 m²)

Expand to show TLE details & history
Last TLE update: 1 day ago

TLE from 1 day ago
0 GLOBALSTAR M028
1 25875U 99041D   25257.34809165 -.00000089  00000-0  68945-4 0  9991
2 25875  51.9620 287.2049 0063131 264.9471  94.4182 12.50587605201337
Epoch: 2025-09-14T08:21Z
TLE epoch observation values (Epoch: 2025-09-14T08:21:15.118Z)
Latitude
0.00001°
Longitude
168.32353°
Altitude
1,466.835 km
Speed
7.128 km/s
True Right ascension
19h 08m 49s
True Declination
0° 00' 00"
Sunlit
Object was in daylight at epoch
Visualization orbit readout
Latitude
Unknown
Longitude
Unknown
Altitude
Unknown
Speed
Unknown
Apparent Right ascension
Unknown
Apparent Declination
Unknown
Sunlit
N/A
Visualization observer readout
Local Sidereal Time
10:06:21
Azimuth
Unknown
Elevation
Unknown
Doppler factor
Unknown
Orbital elements
Apogee altitude
1,511.932 km
Perigee altitude
1,412.935 km
Semi-major axis
7,840.57 km
Eccentricity
0.00631
Inclination
51.962°
RAAN
287.2049°
Arg. of periapsis
264.9471°
True anomaly
95.13902°
Mean anomaly
94.4182°
Eccentric anomaly
94.77866°
Mean motion
3.12624 °/min
Orbital period
115.15 mins
BSTAR
0.000068945
Loading maneuver chart data...
Computing Atmospheric mass density...
Loading historical data...
Loading historical data...
Loading historical data...
Loading historical data...
Loading historical data...
Loading historical data...
Loading historical data...
Other satellites on launch #41 in the year 1999 (1999-07-25 UTC)

Documentation

Showing up to 5 results
|